This demonstration page uses our WeatherBlox Daily Observations layout. Learn more.

Left ArrowRight Arrow

40.92501, -98.34201

Hourly Observations for August 18, 2022

Temp ( °F °C ) Dew Point ( °F °C ) Humidity (%) Winds ( mph kmh ) Pressure ( in mb ) Visibility ( mi km ) Precip ( " mm )
12:53 am 00:53 Clear 66 18.9 59 15 78 78 S 5 7 30.09 1019 10 16 0.00 0.00
1:53 am 01:53 Clear 63 17.2 58 14.4 84 84 S 5 7 30.09 1019 10 16 0.00 0.00
2:53 am 02:53 Clear 64 17.8 58 14.4 80 80 SSW 3 6 30.08 1019 10 16 0.00 0.00
3:53 am 03:53 Clear 61 16.1 57 13.9 87 87 S 3 6 30.08 1019 9 14 0.00 0.00
4:53 am 04:53 Clear 61 16.1 57 13.9 87 87 S 3 6 30.07 1018 7 11 0.00 0.00
5:53 am 05:53 Clear 61 16.1 57 13.9 87 87 SSW 6 9 30.06 1018 7 11 0.00 0.00
6:53 am 06:53 Sunny 61 16.1 56 13.3 83 83 Calm 30.07 1018 9 14 0.00 0.00
7:53 am 07:53 Sunny 65 18.3 59 15 81 81 WSW 3 6 30.07 1018 10 16 0.00 0.00
8:53 am 08:53 Sunny 71 21.7 59 15 66 66 SW 13 20 30.06 1018 10 16 0.00 0.00
9:53 am 09:53 Sunny 76 24.4 59 15 56 56 SW 14 22 30.04 1017 10 16 0.00 0.00
10:53 am 10:53 Sunny 81 27.2 59 15 47 47 SW 14 22 30.03 1017 10 16 0.00 0.00
11:53 am 11:53 Sunny 83 28.3 60 15.6 46 46 SSW 14 22 30.01 1016 10 16 0.00 0.00
12:53 pm 12:53 Sunny 86 30 60 15.6 42 42 SSW 14 22 29.98 1015 10 16 0.00 0.00
1:53 pm 13:53 Sunny 88 31.1 59 15 38 38 WSW 15 24 29.98 1015 10 16 0.00 0.00
2:53 pm 14:53 Sunny 90 32.2 58 14.4 34 34 WSW 14 22 29.96 1014 10 16 0.00 0.00
3:53 pm 15:53 Sunny 90 32.2 60 15.6 37 37 SSW 16 26 29.93 1014 10 16 0.00 0.00
4:53 pm 16:53 Partly Cloudy 85 29.4 60 15.6 43 43 SSW 10 17 29.91 1013 10 16 0.00 0.00
5:21 pm 17:21 Partly Cloudy with Nearby Thunderstorms 84 28.9 59 15 43 43 SSW 10 17 29.82 1010 10 16 0.00 0.00
5:36 pm 17:36 Partly Cloudy 83 28.3 59 15 44 44 SSW 9 15 29.83 1010 10 16 0.00 0.00
5:53 pm 17:53 Partly Cloudy with Light Rain 79 26.1 64 17.8 60 60 SSW 7 11 29.90 1012 10 16 0.01 0.25
6:53 pm 18:53 Mostly Sunny 83 28.3 61 16.1 48 48 SSW 8 13 29.89 1012 10 16 0.01 0.13
7:53 pm 19:53 Partly Cloudy 80 26.7 63 17.2 56 56 SW 7 11 29.88 1012 10 16 0.00 0.00
8:53 pm 20:53 Clear 74 23.3 63 17.2 69 69 WNW 5 7 29.88 1012 10 16 0.00 0.00
9:53 pm 21:53 Clear 69 20.6 63 17.2 81 81 NW 6 9 29.90 1013 10 16 0.00 0.00
10:53 pm 22:53 Mostly Clear 68 20 61 16.1 78 78 W 6 9 29.91 1013 10 16 0.00 0.00
11:53 pm 23:53 Mostly Clear 74 23.3 59 15 60 60 NNW 9 15 29.91 1013 10 16 0.00 0.00

Powered by AerisWeather